ARIANE 44LP DEB, 25543

Orbit data source: Space-Track

ARIANE 44LP DEB, 25543 is space debris in HEO originally from a launch on Sun, 11 Dec 1988 UTC launched from the French Guiana (FRGUI). Debris objects in space refer to the collection of defunct objects orbiting the Earth. Examples of debris include non-operational satellites, rocket bodies, and fragments generated from explosions, collisions, or faulty payload assembly.

Loading next visibility...
Identifier
25543, 1988-109K
Orbit
HEO
Country
Flag of FRFR
Related business
Manufacturer
Unknown
Mission
Spacecraft
Bus & Motor
Unknown
Mass
Unknown
Launch date (UTC)
1988-12-11 (37 years ago)
Launch vehicle
Unknown
Launch site
French Guiana (FRGUI)
Object type
Payload
Rocket body
Debris
Shape & HBR
Unknown shape, 2.8 m
Radar Cross Section
Large (>1 m²)

Expand to show TLE details & history
Last TLE update: 16 hours ago

TLE from 16 hours ago
0 ARIANE 44LP DEB
1 25543U 88109K   26125.44396080  .00000049  00000-0  30700-3 0  9991
2 25543   6.6093 245.5823 7184362  39.6354 355.0425  2.30717809235691
Epoch: 2026-05-05T10:39Z
TLE epoch observation values (Epoch: 2026-05-05T10:39:18.213Z)
Latitude
0.00017°
Longitude
-137.35311°
Altitude
1,157.391 km
Speed
9.45 km/s
True Right ascension
16h 23m 09s
True Declination
0° 00' 01"
Sunlit
Object was in full shadow at epoch
Visualization orbit readout
Latitude
Unknown
Longitude
Unknown
Altitude
Unknown
Speed
Unknown
Apparent Right ascension
Unknown
Apparent Declination
Unknown
Sunlit
N/A
Visualization observer readout
Local Sidereal Time
10:34:47
Azimuth
Unknown
Elevation
Unknown
Doppler factor
Unknown
Orbital elements
Apogee altitude
35,204.301 km
Perigee altitude
435.098 km
Semi-major axis
24,197.836 km
Eccentricity
0.71844
Inclination
6.6093°
RAAN
245.5823°
Arg. of periapsis
39.6354°
True anomaly
319.52365°
Mean anomaly
355.0425°
Eccentric anomaly
343.02396°
Mean motion
0.5766 °/min
Orbital period
624.34 mins
BSTAR
0.000307
Loading maneuver chart data...
Computing Atmospheric mass density...
Loading historical data...
Loading historical data...
Loading historical data...
Loading historical data...
Loading historical data...
Loading historical data...
Loading historical data...

Documentation

Showing up to 5 results
|